Time,TemperatureF,DewpointF,PressureIn,WindDirection,WindDirectionDegrees,WindSpeedMPH,WindSpeedGustMPH,Humidity,HourlyPrecipIn,Conditions,Clouds,dailyrainin,SoftwareType,DateUTC
2013-08-14 00:02:00,70.0,61.0,30.07,North,358,2.0,2.0,74,0.00,,,0.00,,2013-08-14 05:02:00,
2013-08-14 00:22:00,69.0,61.0,30.09,North,358,2.0,2.0,75,0.00,,,0.00,,2013-08-14 05:22:00,
2013-08-14 00:32:00,69.0,61.0,30.09,North,358,2.0,2.0,75,0.00,,,0.00,,2013-08-14 05:32:00,
2013-08-14 00:51:00,68.0,60.0,30.09,North,358,1.0,2.0,75,0.00,,,0.00,,2013-08-14 05:51:00,
2013-08-14 01:01:00,68.0,60.0,30.09,North,358,1.0,2.0,75,0.00,,,0.00,,2013-08-14 06:01:00,
2013-08-14 01:21:00,68.0,60.0,30.09,North,360,0.0,0.0,76,0.00,,,0.00,,2013-08-14 06:21:00,
2013-08-14 01:32:00,68.0,60.0,30.09,North,360,0.0,0.0,76,0.00,,,0.00,,2013-08-14 06:32:00,
2013-08-14 01:52:00,67.0,59.0,30.09,North,360,0.0,0.0,76,0.00,,,0.00,,2013-08-14 06:52:00,
2013-08-14 02:01:00,67.0,59.0,30.09,North,360,0.0,0.0,76,0.00,,,0.00,,2013-08-14 07:01:00,
2013-08-14 02:21:00,67.0,60.0,30.10,North,360,0.0,1.0,77,0.00,,,0.00,,2013-08-14 07:21:00,
2013-08-14 02:32:00,67.0,60.0,30.10,North,360,0.0,1.0,77,0.00,,,0.00,,2013-08-14 07:32:00,
2013-08-14 02:52:00,67.0,60.0,30.10,North,358,1.0,1.0,78,0.00,,,0.00,,2013-08-14 07:52:00,
2013-08-14 03:01:00,67.0,60.0,30.10,North,358,1.0,1.0,78,0.00,,,0.00,,2013-08-14 08:01:00,
2013-08-14 03:21:00,66.0,59.0,30.10,North,360,0.0,0.0,78,0.00,,,0.00,,2013-08-14 08:21:00,
2013-08-14 03:31:00,66.0,59.0,30.10,North,360,0.0,0.0,78,0.00,,,0.00,,2013-08-14 08:31:00,
2013-08-14 03:52:00,66.0,59.0,30.10,North,360,0.0,1.0,79,0.00,,,0.00,,2013-08-14 08:52:00,
2013-08-14 04:02:00,66.0,59.0,30.10,North,360,0.0,1.0,79,0.00,,,0.00,,2013-08-14 09:02:00,
2013-08-14 04:21:00,65.0,59.0,30.11,North,360,0.0,0.0,80,0.00,,,0.00,,2013-08-14 09:21:00,
2013-08-14 04:33:00,65.0,59.0,30.11,North,360,0.0,0.0,80,0.00,,,0.00,,2013-08-14 09:33:00,
2013-08-14 04:53:00,64.0,58.0,30.11,North,360,0.0,0.0,82,0.00,,,0.00,,2013-08-14 09:53:00,
2013-08-14 05:03:00,64.0,58.0,30.11,North,360,0.0,0.0,82,0.00,,,0.00,,2013-08-14 10:03:00,
2013-08-14 05:22:00,64.0,58.0,30.11,North,360,0.0,0.0,82,0.00,,,0.00,,2013-08-14 10:22:00,
2013-08-14 05:32:00,64.0,58.0,30.11,North,360,0.0,0.0,82,0.00,,,0.00,,2013-08-14 10:32:00,
2013-08-14 05:52:00,64.0,59.0,30.11,North,360,0.0,0.0,84,0.00,,,0.00,,2013-08-14 10:52:00,
2013-08-14 06:02:00,64.0,59.0,30.11,North,360,0.0,0.0,84,0.00,,,0.00,,2013-08-14 11:02:00,
2013-08-14 06:21:00,63.0,58.0,30.11,North,360,0.0,0.0,84,0.00,,,0.00,,2013-08-14 11:21:00,
2013-08-14 06:32:00,63.0,58.0,30.11,North,360,0.0,0.0,84,0.00,,,0.00,,2013-08-14 11:32:00,
2013-08-14 06:52:00,63.0,58.0,30.12,ENE,60,1.0,1.0,83,0.00,,,0.00,,2013-08-14 11:52:00,
2013-08-14 07:01:00,63.0,58.0,30.12,ENE,60,1.0,1.0,83,0.00,,,0.00,,2013-08-14 12:01:00,
2013-08-14 07:21:00,63.0,58.0,30.12,North,360,0.0,0.0,84,0.00,,,0.00,,2013-08-14 12:21:00,
2013-08-14 07:31:00,63.0,58.0,30.12,North,360,0.0,0.0,84,0.00,,,0.00,,2013-08-14 12:31:00,
2013-08-14 07:52:00,62.0,57.0,30.13,North,360,0.0,0.0,84,0.00,,,0.00,,2013-08-14 12:52:00,
2013-08-14 08:22:00,63.0,58.0,30.14,SSE,155,2.0,2.0,83,0.00,,,0.00,,2013-08-14 13:22:00,
2013-08-14 08:31:00,63.0,58.0,30.14,SSE,155,2.0,2.0,83,0.00,,,0.00,,2013-08-14 13:31:00,
2013-08-14 08:52:00,64.0,58.0,30.14,SE,128,0.0,2.0,80,0.00,,,0.00,,2013-08-14 13:52:00,
2013-08-14 09:02:00,64.0,58.0,30.14,SE,128,0.0,2.0,80,0.00,,,0.00,,2013-08-14 14:02:00,
2013-08-14 09:21:00,65.0,58.0,30.15,SE,128,0.0,1.0,77,0.00,,,0.00,,2013-08-14 14:21:00,
2013-08-14 09:32:00,65.0,58.0,30.15,SE,128,0.0,1.0,77,0.00,,,0.00,,2013-08-14 14:32:00,
2013-08-14 09:52:00,67.0,58.0,30.15,ESE,117,2.0,3.0,74,0.00,,,0.00,,2013-08-14 14:52:00,
2013-08-14 10:02:00,67.0,58.0,30.15,ESE,117,2.0,3.0,74,0.00,,,0.00,,2013-08-14 15:02:00,
2013-08-14 10:22:00,68.0,59.0,30.15,SE,135,2.0,2.0,72,0.00,,,0.00,,2013-08-14 15:22:00,
2013-08-14 10:33:00,68.0,59.0,30.15,SE,135,2.0,2.0,72,0.00,,,0.00,,2013-08-14 15:33:00,
2013-08-14 10:56:00,69.0,58.0,30.16,East,100,1.0,2.0,68,0.00,,,0.00,,2013-08-14 15:56:00,
2013-08-14 11:04:00,69.0,58.0,30.16,East,100,1.0,2.0,68,0.00,,,0.00,,2013-08-14 16:04:00,
2013-08-14 11:27:00,72.0,60.0,30.16,SE,135,4.0,4.0,65,0.00,,,0.00,,2013-08-14 16:27:00,
2013-08-14 11:34:00,72.0,60.0,30.16,SE,135,4.0,4.0,65,0.00,,,0.00,,2013-08-14 16:34:00,
2013-08-14 11:59:00,74.0,60.0,30.16,East,84,3.0,3.0,62,0.00,,,0.00,,2013-08-14 16:59:00,
2013-08-14 12:05:00,74.0,60.0,30.16,East,84,3.0,3.0,62,0.00,,,0.00,,2013-08-14 17:05:00,
2013-08-14 12:29:00,73.0,60.0,30.16,ESE,116,2.0,4.0,64,0.00,,,0.00,,2013-08-14 17:29:00,
2013-08-14 12:36:00,73.0,60.0,30.16,ESE,116,2.0,4.0,64,0.00,,,0.00,,2013-08-14 17:36:00,
2013-08-14 12:55:00,74.0,61.0,30.15,SE,136,2.0,2.0,63,0.00,,,0.00,,2013-08-14 17:55:00,
2013-08-14 13:06:00,74.0,61.0,30.15,SE,136,2.0,2.0,63,0.00,,,0.00,,2013-08-14 18:06:00,
2013-08-14 13:33:00,75.0,61.0,30.14,SE,128,2.0,2.0,61,0.00,,,0.00,,2013-08-14 18:33:00,
2013-08-14 13:40:00,75.0,61.0,30.14,SE,128,2.0,2.0,61,0.00,,,0.00,,2013-08-14 18:40:00,
2013-08-14 13:56:00,76.0,61.0,30.13,ESE,102,1.0,3.0,60,0.00,,,0.00,,2013-08-14 18:56:00,
2013-08-14 14:03:00,76.0,61.0,30.13,ESE,102,1.0,3.0,60,0.00,,,0.00,,2013-08-14 19:03:00,
2013-08-14 14:29:00,76.0,59.0,30.13,ESE,122,2.0,2.0,55,0.00,,,0.00,,2013-08-14 19:29:00,
2013-08-14 14:35:00,76.0,59.0,30.13,ESE,122,2.0,2.0,55,0.00,,,0.00,,2013-08-14 19:35:00,
2013-08-14 14:53:00,77.0,61.0,30.12,ESE,104,1.0,3.0,58,0.00,,,0.00,,2013-08-14 19:53:00,
2013-08-14 15:05:00,77.0,61.0,30.12,ESE,104,1.0,3.0,58,0.00,,,0.00,,2013-08-14 20:05:00,
2013-08-14 15:35:00,76.0,62.0,30.11,ENE,72,1.0,2.0,61,0.00,,,0.00,,2013-08-14 20:35:00,
2013-08-14 15:52:00,77.0,60.0,30.10,East,80,1.0,1.0,55,0.00,,,0.00,,2013-08-14 20:52:00,
2013-08-14 16:05:00,77.0,60.0,30.10,East,80,1.0,1.0,55,0.00,,,0.00,,2013-08-14 21:05:00,
2013-08-14 16:20:00,76.0,60.0,30.09,East,96,0.0,1.0,58,0.00,,,0.00,,2013-08-14 21:20:00,
2013-08-14 16:23:00,76.0,59.0,30.09,East,79,2.0,2.0,55,0.00,,,0.00,,2013-08-14 21:23:00,
2013-08-14 16:34:00,76.0,59.0,30.09,East,79,2.0,2.0,55,0.00,,,0.00,,2013-08-14 21:34:00,
2013-08-14 16:55:00,76.0,60.0,30.09,East,96,0.0,1.0,58,0.00,,,0.00,,2013-08-14 21:55:00,
2013-08-14 17:04:00,76.0,60.0,30.09,East,96,0.0,1.0,58,0.00,,,0.00,,2013-08-14 22:04:00,
2013-08-14 17:13:00,76.0,60.0,30.09,East,96,0.0,1.0,58,0.00,,,0.00,,2013-08-14 22:13:00,
2013-08-14 18:13:00,75.0,60.0,30.07,North,360,0.0,0.0,59,0.00,,,0.00,,2013-08-14 23:13:00,
2013-08-14 18:25:00,75.0,60.0,30.07,North,360,0.0,0.0,59,0.00,,,0.00,,2013-08-14 23:25:00,
2013-08-14 18:46:00,74.0,59.0,30.07,SE,124,1.0,1.0,59,0.00,,,0.00,,2013-08-14 23:46:00,
2013-08-14 18:56:00,74.0,59.0,30.07,SE,124,1.0,1.0,59,0.00,,,0.00,,2013-08-14 23:56:00,
2013-08-14 19:23:00,74.0,58.0,30.07,SE,132,1.0,1.0,58,0.00,,,0.00,,2013-08-15 00:23:00,
2013-08-14 19:52:00,72.0,57.0,30.06,SSE,148,2.0,2.0,60,0.00,,,0.00,,2013-08-15 00:52:00,
2013-08-14 20:16:00,71.0,56.0,30.06,SE,135,1.0,1.0,60,0.00,,,0.00,,2013-08-15 01:16:00,
2013-08-14 20:22:00,71.0,56.0,30.06,SE,135,1.0,1.0,60,0.00,,,0.00,,2013-08-15 01:22:00,
2013-08-14 20:52:00,70.0,57.0,30.06,SSE,149,1.0,1.0,63,0.00,,,0.00,,2013-08-15 01:52:00,
2013-08-14 21:11:00,69.0,56.0,30.06,SSE,149,1.0,1.0,64,0.00,,,0.00,,2013-08-15 02:11:00,
2013-08-14 21:21:00,69.0,56.0,30.06,SSE,149,1.0,1.0,64,0.00,,,0.00,,2013-08-15 02:21:00,
2013-08-14 22:11:00,67.0,56.0,30.08,SSE,149,1.0,1.0,68,0.00,,,0.00,,2013-08-15 03:11:00,
2013-08-14 22:22:00,67.0,56.0,30.08,SSE,149,1.0,1.0,68,0.00,,,0.00,,2013-08-15 03:22:00,
2013-08-14 22:53:00,67.0,56.0,30.09,SSE,149,1.0,2.0,68,0.00,,,0.00,,2013-08-15 03:53:00,
2013-08-14 23:12:00,66.0,56.0,30.09,SSE,149,1.0,3.0,70,0.00,,,0.00,,2013-08-15 04:12:00,
2013-08-14 23:23:00,66.0,56.0,30.09,SSE,149,1.0,3.0,70,0.00,,,0.00,,2013-08-15 04:23:00,
2013-08-14 23:52:00,66.0,56.0,30.09,SSE,149,2.0,2.0,69,0.00,,,0.00,,2013-08-15 04:52:00,